Погода в Санта-Крус-де-Тенерифе

Испания     28°27′35″N   16°14′58″W
темп.,
°C
ветер,
м/с
пор.,
м/с
влажн.,
%
обл.,
%
осадки,
мм/ч
давл.,
гПа
погр.,
м
12 мая, ср
ср1201:00+17ссв78706 0.0 1025897
04:00+17ссв77715 0.0 1023840
07:00+17ссв777362 0.0 1023791
10:00+18ссв787172 0.0 1024962
13:00+19ссв786926 0.0 1024999
16:00+19ссв776976 0.0 1024903
19:00+18ссв787123 0.0 1023805
22:00+18ссв787793 0.0 1024733
13 мая, чт
чт1301:00+18ссв6879100 0.0 1023713
04:00+18ссв788198 0.1 1022816
07:00+18ссв788396 0.3 1022775
10:00+18ссв788396 0.3 1022750
13:00+19с688184 0.3 1022749
16:00+20с787679 0.1 1021912
19:00+19с897617 0.2 1021804
22:00+18с78756 0.0 1022834
14 мая, пт
пт1401:00+18с787623 0.0 1022878
04:00+18с897854 0.0 1020902
07:00+19с787675 0.1 1020934
10:00+19с797993 0.1 1021913
13:00+19с897586 0.3 1020947
16:00+20с787515 0.1 1020871
19:00+19с897589 0.1 1019916
22:00+19ссз898186 0.1 1020860
15 мая, сб
сб1501:00+19с8107886 0.3 1020997
04:00+18ссз897547 0.1 1017897
07:00+18ссз788025 0.1 1017780
10:00+19ссз897742 0.0 1018856
13:00+20ссз787444 0.0 1018807
16:00+20ссз887439 0.0 1017760
19:00+20ссз787743 0.0 1017647
22:00+19ссз788426 0.0 1018564
16 мая, вс
вс1601:00+18ссз678655 0.0 1018550
04:00+18ссз778476 0.0 1017574
07:00+18ссз678447 0.0 1017542
10:00+19ссз687929 0.0 1018573
13:00+20с677632 0.0 1019563
16:00+20с6780100 0.0 1018530
19:00+20ссв678375 0.0 1018566
22:00+20с578798 0.0 1020452